Group_ship,Cruise,JD_GMT,Date_DDMMYYYY,TIME_HH:MM:SS,Lat_dec_degree,Long_dec_degree,xCO2eq_ppm,xCO2a_ppm,Pres_Equi_hPa,Pres_sealevel_hPa,EqTemp_C,SST(TSG)_C,Sal(TSG)_Permil,Water_flow_l/min,Gasflow_IR_ml/min,Temp_IR_C,Pres_IR_hPa,Ship_heading_true_degree,Ship_speed_knot,Wind_dir_rel_degree,Wind_speed_rel_m/s,fCO2W@SST_uatm,Qcflag_water,fCO2a_uatm,Qcflag_air,dfCO2_uatm,Fluoro_ug/l,Wind_speed_true_m/s,Wind_dir_true_degree,Air_temp_C,Oxygen
AOML_Explorer,Ex0540W,282.972,9102005,23:19:07,25.402,-79.99,398.75,-9,1007.53,1004.81,28.72,29.14,36.109,1.19,77.15,31.56,1007.53,181.2,20.2,14,11.32,385.88,2,-9,9,-9,0.08,2.88,259.78,29.57,226.721297
AOML_Explorer,Ex0540W,282.973,9102005,23:21:40,25.388,-79.99,398.89,-9,1007.47,1004.88,28.73,29.16,36.104,1.2,77.12,31.57,1007.47,180.5,20.2,16,11.32,386.08,2,-9,9,-9,0.08,3.32,262.96,29.67,226.88648
AOML_Explorer,Ex0540W,282.975,9102005,23:24:13,25.374,-79.991,399.2,-9,1007.49,1004.94,28.74,29.14,36.115,1.22,76.93,31.58,1007.49,180.6,20.1,16,12.35,385.9,2,-9,9,-9,0.08,3.94,248.82,29.63,226.941196
AOML_Explorer,Ex0540W,282.977,9102005,23:26:46,25.359,-79.991,399.33,-9,1007.56,1004.95,28.75,29.13,36.112,1.2,77.28,31.59,1007.56,180.3,20.1,21,11.32,385.77,2,-9,9,-9,0.07,4.31,268.71,29.53,226.994867
AOML_Explorer,Ex0540W,282.979,9102005,23:29:19,25.345,-79.991,399.72,-9,1007.52,1004.93,28.74,29.12,36.117,1.21,77.69,31.6,1007.52,180.3,20.1,20,12.87,386.15,2,-9,9,-9,0.08,4.98,251.19,29.44,227.106865
AOML_Explorer,Ex0540W,282.98,9102005,23:31:52,25.331,-79.991,399.85,-9,1007.43,1004.92,28.73,29.06,36.132,1.21,77.62,31.6,1007.43,178.6,19.8,20,12.87,385.65,2,-9,9,-9,0.08,4.88,246.27,29.34,227.276531
AOML_Explorer,Ex0540W,282.982,9102005,23:34:25,25.317,-79.99,400.04,-9,1007.41,1004.88,28.7,29.03,36.137,1.22,77.24,31.61,1007.41,171.4,19.9,19,13.38,385.75,2,-9,9,-9,0.08,5.24,235.68,29.29,227.646795
AOML_Explorer,Ex0540W,282.984,9102005,23:36:58,25.303,-79.987,399.91,-9,1007.53,1004.89,28.69,29.04,36.117,1.24,77.31,31.61,1007.53,171.9,19.9,18,13.9,386.01,2,-9,9,-9,0.08,5.45,230.25,29.24,227.573878
AOML_Explorer,Ex0540W,282.986,9102005,23:39:31,25.289,-79.985,399.58,-9,1007.81,1004.87,28.65,29.08,36.114,1.25,77.02,31.62,1007.81,171.4,19.9,18,13.38,386.88,2,-9,9,-9,0.08,5.12,234.07,29.23,227.449634
AOML_Explorer,Ex0540W,282.988,9102005,23:42:04,25.275,-79.984,398.93,-9,1007.92,1005.03,28.67,29.1,36.116,1.27,77.24,31.62,1007.92,177.5,20,18,14.41,386.3,2,-9,9,-9,0.08,5.8,232.9,29.12,227.366775
AOML_Explorer,Ex0540W,282.989,9102005,23:44:37,25.261,-79.984,398.74,-9,1007.88,1005.01,28.69,29.05,36.151,1.3,76.76,31.63,1007.88,180.6,19.8,19,13.9,385.04,2,-9,9,-9,0.08,5.42,237.93,29.15,227.667698
AOML_Explorer,Ex0540W,282.991,9102005,23:47:10,25.247,-79.985,398.94,-9,1007.81,1004.97,28.7,29.05,36.148,1.46,76.86,31.63,1007.81,184.2,19.7,22,14.93,385.11,2,-9,9,-9,0.08,6.84,242.34,29.03,227.890384
AOML_Explorer,Ex0540W,282.993,9102005,23:49:43,25.233,-79.986,399.32,-9,1008,1005.07,28.67,29.01,36.139,1.48,76.62,31.63,1008,188,19.8,16,14.93,385.45,2,-9,9,-9,0.08,5.86,232.86,29,228.011657
AOML_Explorer,Ex0540W,282.995,9102005,23:52:16,25.219,-79.988,399.75,-9,1007.92,1005.07,28.68,29.05,36.125,1.54,76.9,31.64,1007.92,187.8,19.7,16,14.93,386.29,2,-9,9,-9,0.08,5.91,232.7,29.04,227.880673
AOML_Explorer,Ex0540W,282.996,9102005,23:54:49,25.206,-79.991,399.48,-9,1007.94,1005.02,28.65,29.06,36.128,1.53,76.76,31.64,1007.94,192.4,19.7,14,14.93,386.7,2,-9,9,-9,0.07,5.63,231.63,28.94,227.807838
AOML_Explorer,Ex0540W,282.998,9102005,23:57:22,25.192,-79.995,399.22,-9,1008.03,1005.08,28.67,29.1,36.134,1.56,76.62,31.64,1008.03,191.9,19.7,14,14.93,386.6,2,-9,9,-9,0.08,5.68,232.26,28.96,227.889639
AOML_Explorer,Ex0540W,283,9102005,23:59:55,25.178,-79.998,398.77,-9,1007.99,1005.13,28.69,29.1,36.14,1.61,77.15,31.65,1007.99,192.4,19.9,18,14.93,385.86,2,-9,9,-9,0.08,6.03,241.04,29.04,227.88042
AOML_Explorer,Ex0540W,283.013,10102005,0:19:07,25.076,-80.025,397.18,-9,1008.04,1005.5,28.35,28.75,36.072,1.68,76.69,31.76,1008.04,192.8,19.6,21,13.38,384.61,2,-9,9,-9,0.08,5.58,258.64,29.18,228.120223
AOML_Explorer,Ex0540W,283.015,10102005,0:21:40,25.062,-80.028,396.39,-9,1008.08,1005.55,28.38,28.69,36.084,1.65,76.65,31.73,1008.08,193,19.8,22,13.38,382.56,2,-9,9,-9,0.08,5.66,261.05,29.19,228.460992
AOML_Explorer,Ex0540W,283.017,10102005,0:24:13,25.049,-80.031,396.19,-9,1008.02,1005.61,28.41,28.75,36.048,1.65,76.5,31.73,1008.02,192.5,19.7,21,14.41,382.66,2,-9,9,-9,0.08,6.35,252.43,28.99,228.32106
AOML_Explorer,Ex0540W,283.022,10102005,0:31:52,25.008,-80.042,397.9,-9,1008.09,1005.63,28.42,28.73,36.065,1.7,77.6,31.74,1008.09,192.2,19.5,24,14.93,383.92,2,-9,9,-9,0.08,7.35,254.74,28.68,228.547144
AOML_Explorer,Ex0540W,283.024,10102005,0:34:25,24.995,-80.046,397.32,-9,1008.16,1005.64,28.41,28.73,36.056,1.68,77.5,31.75,1008.16,201.2,19.3,24,15.44,383.52,2,-9,9,-9,0.08,7.81,260.72,28.69,228.350551
AOML_Explorer,Ex0540W,283.026,10102005,0:36:58,24.983,-80.052,396.84,-9,1008.13,1005.54,28.38,28.74,36.073,1.68,77.33,31.76,1008.13,208.8,19.6,22,15.44,383.66,2,-9,9,-9,0.08,7.34,264.83,28.71,228.316884
AOML_Explorer,Ex0540W,283.027,10102005,0:39:31,24.97,-80.06,396.48,-9,1008.2,1005.63,28.39,28.71,36.095,1.68,77.23,31.77,1008.2,210.8,19.4,23,15.96,382.79,2,-9,9,-9,0.08,7.93,265.23,28.71,228.347164
AOML_Explorer,Ex0540W,283.029,10102005,0:42:04,24.959,-80.069,396.62,-9,1008.19,1005.76,28.39,28.7,36.095,1.66,76.88,31.78,1008.19,217.3,19.4,16,15.96,382.8,2,-9,9,-9,0.08,6.91,256.43,28.67,228.436141
AOML_Explorer,Ex0540W,283.031,10102005,0:44:37,24.948,-80.078,396.79,-9,1008.22,1005.64,28.36,28.69,36.098,1.68,77.34,31.78,1008.22,216.4,19.1,19,15.96,383.22,2,-9,9,-9,0.08,7.44,261.92,28.64,228.413224
AOML_Explorer,Ex0540W,283.033,10102005,0:47:10,24.937,-80.087,396.66,-9,1008.34,1005.72,28.35,28.68,36.109,1.66,76.93,31.79,1008.34,218.1,19.2,20,15.96,383.23,2,-9,9,-9,0.08,7.52,265.68,28.66,228.407958
AOML_Explorer,Ex0540W,283.035,10102005,0:49:43,24.927,-80.096,396.51,-9,1008.25,1005.64,28.35,28.68,36.113,1.68,77.49,31.8,1008.25,217.4,19.2,20,15.96,383.04,2,-9,9,-9,0.08,7.57,265.71,28.64,228.441319
AOML_Explorer,Ex0540W,283.036,10102005,0:52:16,24.916,-80.105,396.46,-9,1008.43,1005.74,28.34,28.7,36.117,1.64,77.49,31.8,1008.43,217.3,19.2,18,15.44,383.51,2,-9,9,-9,0.08,6.94,263.75,28.64,228.417021
AOML_Explorer,Ex0540W,283.038,10102005,0:54:49,24.905,-80.114,396.48,-9,1008.36,1005.76,28.34,28.72,36.109,1.66,76.87,31.8,1008.36,217.3,19.1,19,15.44,383.78,2,-9,9,-9,0.07,7,265.71,28.61,228.418287
AOML_Explorer,Ex0540W,283.04,10102005,0:57:22,24.894,-80.124,396.49,-9,1008.27,1005.79,28.36,28.76,36.101,1.66,77.23,31.81,1008.27,217.5,19.1,23,15.44,384.01,2,-9,9,-9,0.08,7.56,272.8,28.6,228.459069
AOML_Explorer,Ex0540W,283.042,10102005,0:59:55,24.883,-80.133,396.55,-9,1008.32,1005.86,28.38,28.73,36.109,1.65,76.8,31.81,1008.32,217.1,19.2,24,14.93,383.42,2,-9,9,-9,0.09,7.28,277.06,28.59,228.446975
AOML_Explorer,Ex0540W,283.058,10102005,1:24:13,24.788,-80.23,395.11,-9,1008.71,1006.23,28.53,28.87,36.064,1.59,78.41,31.87,1008.71,225.6,19.4,22,14.93,381.89,2,-9,9,-9,0.09,6.91,281.83,28.5,227.912733
AOML_Explorer,Ex0540W,283.06,10102005,1:26:46,24.778,-80.24,395.38,-9,1008.75,1006.28,28.52,28.88,36.02,1.63,78.54,31.87,1008.75,226.6,19.4,26,15.44,382.39,2,-9,9,-9,0.07,7.99,288.58,28.32,227.961616
AOML_Explorer,Ex0540W,283.062,10102005,1:29:19,24.769,-80.252,395.11,-9,1008.81,1006.35,28.5,28.96,36.02,1.61,78.24,31.87,1008.81,231.9,19.3,23,15.44,383.57,2,-9,9,-9,0.08,7.43,287.01,28.25,227.991794
AOML_Explorer,Ex0540W,283.064,10102005,1:31:52,24.76,-80.263,394.73,-9,1008.85,1006.38,28.54,29,36.03,1.61,78.13,31.87,1008.85,227.5,19.3,26,15.44,383.16,2,-9,9,-9,0.08,8.06,289.66,28.22,228.098589
AOML_Explorer,Ex0540W,283.066,10102005,1:34:25,24.751,-80.275,395.09,-9,1008.8,1006.42,28.59,29.14,36.041,1.59,77.67,31.86,1008.8,228.6,19.2,28,13.9,384.6,2,-9,9,-9,0.08,7.11,299.96,28.29,227.994705
AOML_Explorer,Ex0540W,283.067,10102005,1:36:58,24.742,-80.286,395.67,-9,1008.82,1006.5,28.65,29.18,36.067,1.61,77.16,31.86,1008.82,228.3,19.2,28,13.9,384.92,2,-9,9,-9,0.09,7.12,299.73,28.24,227.422672
AOML_Explorer,Ex0540W,283.069,10102005,1:39:31,24.733,-80.297,395.93,-9,1009.02,1006.49,28.74,29.22,36.069,1.58,77.61,31.87,1009.02,228.6,19.2,29,12.87,384.54,2,-9,9,-9,0.08,6.55,307.46,28.21,227.31153
AOML_Explorer,Ex0540W,283.071,10102005,1:42:04,24.724,-80.308,396.26,-9,1008.94,1006.48,28.79,29.22,36.07,1.6,77.8,31.86,1008.94,228.5,19.4,25,14.41,384.04,2,-9,9,-9,0.08,6.98,293.29,28.4,227.191184
AOML_Explorer,Ex0540W,283.073,10102005,1:44:37,24.715,-80.319,396.84,-9,1008.89,1006.47,28.81,29.19,36.065,1.61,77.16,31.87,1008.89,223.7,19.3,29,14.93,383.85,2,-9,9,-9,0.08,7.95,290.98,28.45,227.18795
AOML_Explorer,Ex0540W,283.074,10102005,1:47:10,24.705,-80.329,397.41,-9,1008.94,1006.55,28.8,29.21,36.061,1.62,76.55,31.86,1008.94,222,19.5,24,14.41,384.92,2,-9,9,-9,0.09,6.85,286.1,28.48,227.16326
AOML_Explorer,Ex0540W,283.076,10102005,1:49:43,24.695,-80.34,397.83,-9,1009.03,1006.47,28.79,29.24,36.062,1.6,77.08,31.87,1009.03,223.3,19.4,22,13.9,385.85,2,-9,9,-9,0.09,6.17,286.54,28.38,227.172279
AOML_Explorer,Ex0540W,283.078,10102005,1:52:16,24.685,-80.351,397.91,-9,1008.98,1006.58,28.82,29.26,36.062,1.59,76.48,31.86,1008.98,226.1,19.3,27,14.41,385.76,2,-9,9,-9,0.08,7.24,292.97,28.39,227.131786
AOML_Explorer,Ex0540W,283.08,10102005,1:54:49,24.676,-80.361,398.13,-9,1009.01,1006.53,28.85,29.26,36.063,1.6,76.43,31.86,1009.01,227,19.3,22,14.93,385.66,2,-9,9,-9,0.08,7.01,284.44,28.33,227.170346
AOML_Explorer,Ex0540W,283.082,10102005,1:57:22,24.667,-80.373,398.27,-9,1009.09,1006.6,28.86,29.29,36.058,1.6,77.11,31.86,1009.09,231.4,19.3,25,14.93,385.93,2,-9,9,-9,0.1,7.33,292.44,28.31,227.147095
AOML_Explorer,Ex0540W,283.083,10102005,1:59:55,24.658,-80.385,397.94,-9,1009.15,1006.62,28.86,29.3,36.065,1.61,77.24,31.86,1009.15,231.2,19.3,23,14.93,385.77,2,-9,9,-9,0.08,7.05,289.07,28.31,227.148362
AOML_Explorer,Ex0540W,283.102,10102005,2:26:46,24.561,-80.502,398.31,-9,1009.27,1006.78,28.84,29.2,36.076,1.59,78.34,31.9,1009.27,222,19.3,28,12.87,385.15,2,-9,9,-9,0.08,6.49,300.46,28.23,227.401814
AOML_Explorer,Ex0540W,283.104,10102005,2:29:19,24.551,-80.511,398.61,-9,1009.17,1006.73,28.81,29.2,36.08,1.57,78.06,31.89,1009.17,221.1,18.7,22,12.87,385.74,2,-9,9,-9,0.08,5.67,289.13,28.2,227.455339
AOML_Explorer,Ex0540W,283.105,10102005,2:31:52,24.541,-80.521,399.09,-9,1009.35,1006.75,28.79,29.19,36.096,1.58,77.89,31.89,1009.35,221.9,19.2,25,11.84,386.45,2,-9,9,-9,0.08,5.56,305.76,28.2,227.503206
AOML_Explorer,Ex0540W,283.107,10102005,2:34:25,24.531,-80.531,399.82,-9,1009.2,1006.73,28.79,29.2,36.105,1.58,77.8,31.89,1009.2,221.5,18.8,25,12.35,387.26,2,-9,9,-9,0.07,5.77,298.17,28.19,227.531798
AOML_Explorer,Ex0540W,283.109,10102005,2:36:58,24.521,-80.541,400.59,-9,1009.31,1006.76,28.8,29.26,36.084,1.58,77.95,31.89,1009.31,220.4,18.7,24,11.32,388.8,2,-9,9,-9,0.09,5.08,304.66,28.21,227.549285
AOML_Explorer,Ex0540W,283.111,10102005,2:39:31,24.511,-80.55,401.07,-9,1009.28,1006.75,28.82,29.26,36.079,1.55,77.62,31.89,1009.28,219.9,18.6,24,12.35,388.88,2,-9,9,-9,0.07,5.68,294.67,28.23,227.545968
AOML_Explorer,Ex0540W,283.113,10102005,2:42:04,24.501,-80.56,401.62,-9,1009.24,1006.71,28.85,29.28,36.063,1.6,77.05,31.88,1009.24,223.2,18.5,24,12.35,389.2,2,-9,9,-9,0.08,5.78,298.15,28.24,227.677546
AOML_Explorer,Ex0540W,283.114,10102005,2:44:37,24.491,-80.57,401.58,-9,1009.24,1006.73,28.86,29.29,36.065,1.57,77.57,31.88,1009.24,223.3,18.3,22,12.35,389.23,2,-9,9,-9,0.08,5.46,293.98,28.2,227.665097
AOML_Explorer,Ex0540W,283.116,10102005,2:47:10,24.483,-80.58,401.36,-9,1009.17,1006.72,28.88,29.29,36.058,1.55,76.84,31.87,1009.17,232.1,18.4,22,12.35,388.71,2,-9,9,-9,0.08,5.25,301.3,28.2,227.743268
AOML_Explorer,Ex0540W,283.118,10102005,2:49:43,24.474,-80.591,401.33,-9,1009.19,1006.69,28.88,29.29,36.047,1.56,77.19,31.87,1009.19,230,18.4,24,11.84,388.68,2,-9,9,-9,0.09,5.33,307.42,28.17,227.679221
AOML_Explorer,Ex0540W,283.12,10102005,2:52:16,24.466,-80.603,401.05,-9,1009.33,1006.77,28.87,29.31,36.046,1.57,77.13,31.87,1009.33,232.8,18.5,26,12.35,388.77,2,-9,9,-9,0.09,5.77,307.67,28.19,227.740754
AOML_Explorer,Ex0540W,283.121,10102005,2:54:49,24.459,-80.615,400.69,-9,1009.21,1006.74,28.88,29.32,36.054,1.56,76.83,31.87,1009.21,233.4,18.4,23,12.35,388.57,2,-9,9,-9,0.09,5.16,302.42,28.19,227.808467
AOML_Explorer,Ex0540W,283.123,10102005,2:57:22,24.451,-80.626,400.19,-9,1009.31,1006.71,28.9,29.34,36.053,1.56,76.64,31.86,1009.31,234.1,18.6,23,12.35,388.07,2,-9,9,-9,0.08,5.13,303.46,28.15,227.690684
AOML_Explorer,Ex0540W,283.125,10102005,2:59:55,24.443,-80.638,399.56,-9,1009.33,1006.85,28.91,29.33,36.051,1.57,76.83,31.86,1009.33,237,18.6,24,12.35,387.12,2,-9,9,-9,0.08,5.42,309.3,28.2,227.71422
AOML_Explorer,Ex0540W,283.357,10102005,8:34:25,23.637,-82.512,397.08,-9,1008.13,1005.78,28.19,28.83,36.082,1.42,79.86,32.2,1008.13,246.3,20.3,5,11.32,387.91,2,-9,9,-9,0.08,1.63,307.66,27.12,228.901158
AOML_Explorer,Ex0540W,283.359,10102005,8:36:58,23.632,-82.526,397.38,-9,1008.14,1005.78,28.26,29.1,36.06,1.42,79.9,32.2,1008.14,246.7,20,3,10.29,390.92,2,-9,9,-9,0.07,1.03,339.57,27.11,227.859336
AOML_Explorer,Ex0540W,283.361,10102005,8:39:31,23.626,-82.541,397.81,-9,1008.14,1005.86,28.53,29.15,36.041,1.4,79.84,32.2,1008.14,246.7,20,8,11.32,388.06,2,-9,9,-9,0.07,2.22,314.45,27.13,227.178884
AOML_Explorer,Ex0540W,283.363,10102005,8:42:04,23.621,-82.555,398.3,-9,1008.18,1005.88,28.66,29.17,36.049,1.42,80.6,32.19,1008.18,246.8,20,11,11.84,386.87,2,-9,9,-9,0.08,2.98,312.51,27.1,226.95975
AOML_Explorer,Ex0540W,283.364,10102005,8:44:37,23.615,-82.569,399,-9,1008.2,1005.93,28.72,29.09,36.054,1.43,80.67,32.19,1008.2,246.7,20,3,10.81,385.56,2,-9,9,-9,0.08,1.05,310.01,27.08,226.743969
AOML_Explorer,Ex0540W,283.366,10102005,8:47:10,23.609,-82.583,399.63,-9,1008.2,1005.88,28.72,29.06,36.058,1.42,79.84,32.19,1008.2,246.4,20.1,3,11.32,385.84,2,-9,9,-9,0.08,1.37,293.32,27.13,226.937903
AOML_Explorer,Ex0540W,283.368,10102005,8:49:43,23.604,-82.598,399.97,-9,1008.18,1005.92,28.68,28.93,36.103,1.42,80.3,32.18,1008.18,246.2,20.3,5,11.32,385.07,2,-9,9,-9,0.08,1.65,308,27.05,227.075649
AOML_Explorer,Ex0540W,283.37,10102005,8:52:16,23.598,-82.612,399.88,-9,1008.16,1005.95,28.62,28.84,36.119,1.44,80.07,32.18,1008.16,246.5,20.5,6,11.32,384.42,2,-9,9,-9,0.08,1.71,313.75,27.04,227.382088
AOML_Explorer,Ex0540W,283.371,10102005,8:54:49,23.592,-82.627,399.88,-9,1008.2,1005.86,28.53,28.73,36.141,1.41,80.22,32.18,1008.2,246.4,20.6,4,11.32,384.44,2,-9,9,-9,0.08,1.41,308.84,27.06,227.690034
AOML_Explorer,Ex0540W,283.373,10102005,8:57:22,23.586,-82.641,399.78,-9,1008.21,1005.87,28.44,28.64,36.15,1.44,80.44,32.18,1008.21,246.4,20.7,5,11.32,384.25,2,-9,9,-9,0.08,1.66,316.65,27.03,227.984623
AOML_Explorer,Ex0540W,283.375,10102005,8:59:55,23.58,-82.656,399.41,-9,1008.17,1005.85,28.34,28.71,36.142,1.41,78.98,32.18,1008.17,246.5,20.6,2,10.81,386.3,2,-9,9,-9,0.08,0.98,326.99,27.04,227.836876
AOML_Explorer,Ex0540W,283.394,10102005,9:26:46,23.519,-82.811,399.04,-9,1008.3,1005.92,28.49,29.11,36.069,1.43,80.39,32.26,1008.3,246.6,20.9,358,10.81,389.27,2,-9,9,-9,0.08,0.51,332.32,26.97,227.46994
AOML_Explorer,Ex0540W,283.395,10102005,9:29:19,23.513,-82.826,399.25,-9,1008.33,1006.01,28.54,29.22,36.069,1.44,80.36,32.26,1008.33,246.7,21,0,10.81,390.42,2,-9,9,-9,0.07,0.91,339.13,26.96,227.012807
AOML_Explorer,Ex0540W,283.397,10102005,9:31:52,23.507,-82.841,399.74,-9,1008.36,1006.05,28.72,29.17,36.06,1.42,80.48,32.26,1008.36,246.6,21,3,10.81,387.57,2,-9,9,-9,0.08,1.41,340.33,27.01,227.004392
AOML_Explorer,Ex0540W,283.399,10102005,9:34:25,23.501,-82.856,400.47,-9,1008.42,1006.09,28.76,29.19,36.054,1.42,80.64,32.26,1008.42,246.4,21,359,10.81,387.88,2,-9,9,-9,0.08,0.66,338.15,27.01,226.953914
AOML_Explorer,Ex0540W,283.401,10102005,9:36:58,23.495,-82.871,400.91,-9,1008.44,1006.12,28.75,29.2,36.052,1.41,80.34,32.26,1008.44,246.4,20.9,1,11.32,388.55,2,-9,9,-9,0.08,1.2,310.86,27.02,226.906895
AOML_Explorer,Ex0540W,283.402,10102005,9:39:31,23.489,-82.885,401.01,-9,1008.43,1006.09,28.77,29.18,36.055,1.43,80.23,32.26,1008.43,246.5,20.8,359,10.81,388.16,2,-9,9,-9,0.08,0.49,325.64,27.05,226.932032
AOML_Explorer,Ex0540W,283.404,10102005,9:42:04,23.484,-82.9,400.91,-9,1008.47,1006.09,28.77,29.2,36.048,1.42,80.7,32.27,1008.47,246.5,20.9,0,10.81,388.42,2,-9,9,-9,0.09,0.71,334.19,27.06,226.990773
AOML_Explorer,Ex0540W,283.406,10102005,9:44:37,23.478,-82.915,400.88,-9,1008.46,1006.17,28.76,29.23,36.047,1.42,80.33,32.27,1008.46,245.9,20.9,4,9.78,388.79,2,-9,9,-9,0.07,1.68,15.28,27.06,226.963591
AOML_Explorer,Ex0540W,283.408,10102005,9:47:10,23.472,-82.93,400.87,-9,1008.51,1006.23,28.78,29.25,36.045,1.44,80.03,32.27,1008.51,246.3,21,7,10.81,388.81,2,-9,9,-9,0.08,1.94,341.46,27.09,226.956323
AOML_Explorer,Ex0540W,283.41,10102005,9:49:43,23.466,-82.945,400.91,-9,1008.48,1006.14,28.8,29.29,36.039,1.45,79.57,32.27,1008.48,245.8,20.9,1,10.29,389.2,2,-9,9,-9,0.08,0.97,10.19,27.11,226.934671
AOML_Explorer,Ex0540W,283.411,10102005,9:52:16,23.46,-82.959,401.03,-9,1008.5,1006.24,28.83,29.35,36.029,1.44,80.14,32.27,1008.5,246.2,21,7,10.29,389.68,2,-9,9,-9,0.08,2.01,356.16,27.11,226.997367
AOML_Explorer,Ex0540W,283.413,10102005,9:54:49,23.454,-82.974,401.17,-9,1008.52,1006.11,28.88,29.34,36.027,1.44,80.42,32.27,1008.52,246.6,21.1,0,11.32,389.04,2,-9,9,-9,0.07,0.8,302.73,27.14,227.140019
AOML_Explorer,Ex0540W,283.415,10102005,9:57:22,23.448,-82.989,401.33,-9,1008.76,1006.12,28.9,29.33,36.017,1.46,80.72,32.27,1008.76,246.2,21,359,10.81,388.68,2,-9,9,-9,0.08,0.39,337.24,27.13,227.023845
AOML_Explorer,Ex0540W,283.417,10102005,9:59:55,23.442,-83.004,401.19,-9,1008.75,1006.11,28.89,29.33,36.01,1.45,80.63,32.27,1008.75,246.3,21,359,10.81,388.66,2,-9,9,-9,0.08,0.38,337.32,27.15,227.072613
AOML_Explorer,Ex0540W,283.432,10102005,10:21:40,23.391,-83.132,400.43,-9,1008.7,1006.1,28.99,29.43,36.001,1.71,81.09,32.29,1008.7,246.2,21.3,3,11.32,387.87,2,-9,9,-9,0.07,1.17,321.09,27.27,226.906509
AOML_Explorer,Ex0540W,283.433,10102005,10:24:13,23.385,-83.147,401.03,-9,1008.71,1006.18,28.99,29.44,36.006,1.68,80.95,32.29,1008.71,246.6,21.4,4,10.81,388.58,2,-9,9,-9,0.07,1.23,349.43,27.26,226.929252
AOML_Explorer,Ex0540W,283.435,10102005,10:26:46,23.379,-83.162,401.09,-9,1008.74,1006.23,29.01,29.42,36.015,1.67,81.5,32.28,1008.74,246.4,21.4,7,10.81,388.17,2,-9,9,-9,0.07,1.79,347.66,27.29,226.947071
AOML_Explorer,Ex0540W,283.437,10102005,10:29:19,23.373,-83.178,401.38,-9,1008.74,1006.23,29.01,29.42,36.017,1.69,80.75,32.28,1008.74,246.4,21.4,5,11.84,388.51,2,-9,9,-9,0.07,1.64,309.92,27.29,226.934908
AOML_Explorer,Ex0540W,283.439,10102005,10:31:52,23.367,-83.193,401.2,-9,1008.79,1006.19,29,29.43,36.021,1.7,80.95,32.28,1008.79,246.8,21.4,10,11.84,388.61,2,-9,9,-9,0.08,2.51,323.76,27.34,226.839752
AOML_Explorer,Ex0540W,283.441,10102005,10:34:25,23.361,-83.208,400.86,-9,1008.78,1006.21,29.01,29.45,36.03,1.7,81.26,32.27,1008.78,246.4,21.4,7,11.32,388.39,2,-9,9,-9,0.07,1.82,331.25,27.34,226.817504
AOML_Explorer,Ex0540W,283.442,10102005,10:36:58,23.355,-83.223,400.48,-9,1008.77,1006.17,29.02,29.45,36.036,1.71,80.28,32.27,1008.77,246.7,21.4,1,11.32,387.86,2,-9,9,-9,0.07,0.65,309.77,27.33,226.849325
AOML_Explorer,Ex0540W,283.444,10102005,10:39:31,23.349,-83.238,400.27,-9,1008.76,1006.19,29.03,29.45,36.039,1.69,80.89,32.27,1008.76,246.6,21.3,2,10.29,387.5,2,-9,9,-9,0.07,0.96,22.71,27.32,226.895011
AOML_Explorer,Ex0540W,283.446,10102005,10:42:04,23.343,-83.253,400.16,-9,1008.73,1006.23,29.03,29.46,36.038,1.68,80.87,32.26,1008.73,246.6,21.3,4,11.32,387.55,2,-9,9,-9,0.07,1.19,321.83,27.31,226.955898
AOML_Explorer,Ex0540W,283.448,10102005,10:44:37,23.337,-83.268,399.91,-9,1008.77,1006.22,29.03,29.47,36.041,1.69,80.38,32.26,1008.77,246.9,21.3,11,10.81,387.33,2,-9,9,-9,0.07,2.42,346.91,27.31,226.992484
AOML_Explorer,Ex0540W,283.449,10102005,10:47:10,23.331,-83.283,399.97,-9,1008.88,1006.29,29.04,29.44,36.035,1.69,80.91,32.25,1008.88,246.6,21.4,8,10.81,386.94,2,-9,9,-9,0.07,1.88,347.68,27.33,227.109981
AOML_Explorer,Ex0540W,283.451,10102005,10:49:43,23.325,-83.299,400.31,-9,1008.85,1006.27,29.04,29.41,36.033,1.71,81.06,32.25,1008.85,247,21.5,6,10.81,386.83,2,-9,9,-9,0.07,1.5,350.74,27.37,227.032613
AOML_Explorer,Ex0540W,283.453,10102005,10:52:16,23.319,-83.314,400.69,-9,1008.9,1006.27,29.02,29.39,36.007,1.7,81.12,32.24,1008.9,246.8,21.5,10,11.32,387.14,2,-9,9,-9,0.08,2.29,336.33,27.32,226.917961
AOML_Explorer,Ex0540W,283.455,10102005,10:54:49,23.313,-83.329,400.72,-9,1008.92,1006.32,28.98,29.39,35.999,1.7,80.77,32.24,1008.92,246.8,21.6,6,11.32,387.85,2,-9,9,-9,0.07,1.49,332.64,27.3,226.968318
AOML_Explorer,Ex0540W,283.457,10102005,10:57:22,23.307,-83.344,400.59,-9,1009.04,1006.35,28.98,29.43,36.012,1.68,80.68,32.24,1009.04,246.7,21.6,9,10.81,388.36,2,-9,9,-9,0.07,2.03,350.66,27.31,226.990924
AOML_Explorer,Ex0540W,283.458,10102005,10:59:55,23.301,-83.36,400.47,-9,1008.94,1006.29,29,29.45,36.02,1.7,80.56,32.23,1008.94,246.6,21.6,0,11.32,388.13,2,-9,9,-9,0.07,0.35,300.99,27.32,227.159846
AOML_Explorer,Ex0540W,283.479,10102005,11:29:19,23.23,-83.537,396.14,-9,1009.32,1006.62,28.88,29.28,36.106,1.68,81.84,32.22,1009.32,246.7,21.8,8,11.32,383.62,2,-9,9,-9,0.09,1.69,337.49,27.3,227.728282
AOML_Explorer,Ex0540W,283.48,10102005,11:31:52,23.224,-83.553,395.63,-9,1009.24,1006.69,28.88,29.24,36.105,1.68,81.58,32.22,1009.24,246.7,21.8,5,10.81,382.61,2,-9,9,-9,0.08,1.15,0.44,27.33,227.700127
AOML_Explorer,Ex0540W,283.482,10102005,11:34:25,23.218,-83.568,395.48,-9,1009.3,1006.75,28.87,29.26,36.077,1.69,81.34,32.21,1009.3,246.4,22,359,10.29,382.7,2,-9,9,-9,0.08,1.03,64.3,27.31,228.025954
AOML_Explorer,Ex0540W,283.484,10102005,11:36:58,23.212,-83.584,394.69,-9,1009.36,1006.81,28.85,29.31,36.098,1.69,81.2,32.21,1009.36,246.5,21.9,8,10.29,383.09,2,-9,9,-9,0.08,1.91,11.55,27.33,227.918445
AOML_Explorer,Ex0540W,283.486,10102005,11:39:31,23.206,-83.6,393.73,-9,1009.33,1006.76,28.88,29.33,36.096,1.74,81.28,32.21,1009.33,246.9,21.9,359,10.29,381.91,2,-9,9,-9,0.08,0.99,74.64,27.33,228.020918
AOML_Explorer,Ex0540W,283.488,10102005,11:42:04,23.199,-83.615,394.44,-9,1009.37,1006.71,28.91,29.32,36.102,1.72,81.28,32.2,1009.37,246.9,22,4,10.81,382.1,2,-9,9,-9,0.09,0.98,7.44,27.36,228.24133
AOML_Explorer,Ex0540W,283.489,10102005,11:44:37,23.193,-83.631,395.76,-9,1009.42,1006.76,28.92,29.32,36.101,1.72,81.21,32.2,1009.42,246.6,22,0,10.81,383.15,2,-9,9,-9,0.08,0.52,57.75,27.39,228.282732
AOML_Explorer,Ex0540W,283.491,10102005,11:47:10,23.187,-83.646,397.05,-9,1009.45,1006.88,28.9,29.26,36.103,1.72,81.47,32.19,1009.45,246.5,22,4,11.32,383.98,2,-9,9,-9,0.08,0.93,338.85,27.35,228.050669
AOML_Explorer,Ex0540W,283.493,10102005,11:49:43,23.181,-83.662,397.37,-9,1009.48,1006.93,28.87,29.24,36.086,1.7,80.5,32.18,1009.48,246.8,22,1,11.32,384.43,2,-9,9,-9,0.07,0.33,337.63,27.36,228.103163
AOML_Explorer,Ex0540W,283.495,10102005,11:52:16,23.175,-83.677,396.2,-9,1009.49,1006.9,28.86,29.25,36.088,1.71,80.57,32.18,1009.49,246.8,22,3,11.32,383.66,2,-9,9,-9,0.07,0.7,338.56,27.41,228.100369
AOML_Explorer,Ex0540W,283.496,10102005,11:54:49,23.168,-83.693,394.72,-9,1009.58,1006.96,28.85,29.25,36.088,1.69,80.74,32.17,1009.58,246.7,22,0,10.81,382.25,2,-9,9,-9,0.07,0.53,51.26,27.45,228.090523
AOML_Explorer,Ex0540W,283.498,10102005,11:57:22,23.162,-83.709,394.14,-9,1009.65,1006.98,28.86,29.23,36.078,1.71,80.96,32.17,1009.65,246.4,22,2,10.81,381.38,2,-9,9,-9,0.08,0.77,19.96,27.5,228.103655
AOML_Explorer,Ex0540W,283.5,10102005,11:59:55,23.156,-83.724,393.65,-9,1009.62,1007.03,28.84,29.24,36.073,1.66,80.41,32.16,1009.62,246.6,22.1,357,9.78,381.24,2,-9,9,-9,0.08,1.64,79.38,27.42,228.140205
AOML_Explorer,Ex0540W,283.52,10102005,12:29:19,23.085,-83.904,398.2,-9,1009.84,1007.32,29.2,29.61,36.104,1.7,80.83,32.16,1009.84,246.8,19.9,4,9.26,385.62,2,-9,9,-9,0.08,1.31,27.53,27.67,227.365858
AOML_Explorer,Ex0540W,283.522,10102005,12:31:52,23.079,-83.918,398.42,-9,1009.86,1007.27,29.2,29.55,36.067,1.69,81,32.16,1009.86,246.2,19.4,3,10.29,385.12,2,-9,9,-9,0.08,0.91,318.76,27.64,227.623253